User: anonymous   Login
Location: Boiro
(42.6475°N, 8.8834°W)
Time: 21:49:27
(UTC+01:00)
Language:

DX 1 - Orbit

View from above orbital plane
View from above orbital plane
View from above satellite
View from above satellite

Ground track
Ground track

The orbit data is extracted from the following two-line orbital elements,

1 40071U 14037C   22021.46142826  .00000535  00000-0  75413-4 0  9994
2 40071  98.4278 242.7146 0009665  70.8213 289.4031 14.81630567407576
Epoch (UTC): 21 January 2022 11:04:27
Eccentricity: 0.0009665
inclination: 98.4278°
perigee height: 617 km
apogee height: 631 km
right ascension of ascending node: 242.7146°
argument of perigee: 70.8213°
revolutions per day: 14.81630567
mean anomaly at epoch: 289.4031°
orbit number at epoch: 40757

The dashed part of the orbit path shows where the satellite is in the earth's shadow,  

DLR